Overview Statistics Trail Chart Weather Telemetry Raw packets
 

This is the latest recevied weather packets stored in our database for station/object W8KVG. If no packets are shown the sender has not sent any weather packets the latest 10 day(s).

<< 12 13 14 15 16 17 18 >>
Time Temp. Humidity Pressure Rain* Wind** Luminosity Snow
1777853272 12.78° C 46% 1012.5 hPa 0 mm - 4 W/m² -
1777852969 12.78° C 48% 1012.6 hPa 0 mm - 6 W/m² -
1777852667 12.78° C 45% 1012.6 hPa 0 mm - 8 W/m² -
1777852364 12.78° C 44% 1012.6 hPa 0 mm - 9 W/m² -
1777852067 12.78° C 45% 1012.6 hPa 0 mm - 13 W/m² -
1777851760 13.33° C 46% 1012.5 hPa 0 mm - 15 W/m² -
1777851456 13.33° C 44% 1012.5 hPa 0 mm - 19 W/m² -
1777851152 13.33° C 44% 1012.4 hPa 0 mm - 21 W/m² -
1777850849 13.89° C 42% 1012.6 hPa 0 mm - 25 W/m² -
1777850547 13.89° C 42% 1012.6 hPa 0 mm - 28 W/m² -
1777850245 13.89° C 42% 1012.6 hPa 0 mm - 39 W/m² -
1777849941 13.89° C 42% 1012.6 hPa 0 mm - 35 W/m² -
1777849637 13.89° C 41% 1012.6 hPa 0 mm - 36 W/m² -
1777849335 13.89° C 42% 1012.7 hPa 0 mm - 38 W/m² -
1777849032 14.44° C 41% 1012.5 hPa 0 mm - 43 W/m² -
1777848732 14.44° C 41% 1012.6 hPa 0 mm - 54 W/m² -
1777848429 13.89° C 42% 1012.4 hPa 0 mm - 66 W/m² -
1777848127 14.44° C 39% 1012.6 hPa 0 mm - 68 W/m² -
1777847825 14.44° C 41% 1013 hPa 0 mm - 58 W/m² -
1777847522 14.44° C 40% 1012.7 hPa 0 mm - 84 W/m² -
1777847232 14.44° C 39% 1012.7 hPa 0 mm - 61 W/m² -
1777846916 14.44° C 39% 1012.8 hPa 0 mm - 86 W/m² -
1777846614 15° C 42% 1012.7 hPa 0 mm - 86 W/m² -
1777846311 15° C 39% 1012.7 hPa 0 mm - 154 W/m² -
1777846008 14.44° C 39% 1012.7 hPa 0 mm - 87 W/m² -

* Rain latest hour (hover to see other rain measurements)
** Current wind speed in m/s (hover to see current wind gust speed)